SWARM A (39452 NORAD) Tracking and Keplerian Element Data

This shows tracking and keplerian element data for the satellite.

Feedback or suggestion? Click here.




ElementValue
Catalog39452
NameSWARM A
Epoch Orbit44113
Epoch Day269.15404617
Epoch Year2021
RAAN321.055
Inclination87.3597
Eccentricity0.0003099
Argument of Perigee78.6742
Mean Anonmoly281.4864
Mean Motion15.46046273
Decay Rate3.141E-05
L11 39452U 13067B 21269.15404617 .00003141 00000-0 63423-4 0 9999
L22 39452 87.3597 321.0550 0003099 78.6742 281.4864 15.46046273441139

Live tracking and technical data element details for SWARM A (NORAD 39452). SWARM A can be tracked NOW for your location showing map with azimuth and elevation plus other details from your city location.

Track the satellite on the map from your city or location and see movement details for azimuth, elevation, latitude, longitude, range, height, and movement on the map or in text.







IsCatalogInMostPopularTable: catalog: 39452, numindb: 566
Update: records affected: 1



GetName: 39452 SWARM A

Hit Count: updated at: Mon, 27 Sep 2021 01:15:34 GMT